{"data":{"norad_id":57143,"epoch":"2026-09-20T09:32:26.411424Z","epoch_age_seconds":129786,"freshness":"FRESH","line1":"1 57143U 23090AU  26263.39752791 -.00000848  00000+0 -21289-4 0  9993","line2":"2 57143  43.0048 243.5450 0001416 288.9133  71.1565 15.27584804180132","mean_motion":15.27584804,"eccentricity":0.0001416,"inclination_deg":43.0048,"raan_deg":243.545,"arg_perigee_deg":288.9133,"mean_anomaly_deg":71.1565,"bstar":-2.1289e-5,"rev_number":18013,"period_min":94.266452260414,"perigee_km":482.06316925882,"apogee_km":484.00625308742,"semimajor_km":6861.1717111731,"source":"CELESTRAK","updated_at":"2026-09-21T09:00:33.566763Z"}}